Weather History for Sacramento International, CA

Change the Weather History Date:

Saturday, November 10, 2012

  Actual Average Record
Temperature  
Mean Temperature 47 °F -  
Max Temperature 57 °F 64 °F 79 °F (1955)
Min Temperature 37 °F 45 °F 32 °F (2011)
Degree Days  
Heating Degree Days 18    
Moisture  
Dew Point 36 °F    
Average Humidity 70    
Maximum Humidity 97    
Minimum Humidity 36    
Precipitation  
Precipitation 0.00 in - - ()
Sea Level Pressure  
Sea Level Pressure 30.11 in    
Wind  
Wind Speed 5 mph (SSE)    
Max Wind Speed 9 mph    
Max Gust Speed -    
Visibility 10 miles    
Events Rain    
Averages and records for this station are not official NWS values.
T = Trace of Precipitation, MM = Missing Value Source: NWS Daily Summary

Daily Weather History Graph

Daily Weather History Graph

Search for Another Location

Airport:

Trip Planner

Search our weather history database for the weather conditions in past years. The results will help you decide how hot, cold, wet, or windy it might be!

Date:

Astronomy

Nov. 10, 2012 Rise Set
Actual Time 6:43 AM PST 4:56 PM PST
Civil Twilight 6:15 AM PST 5:24 PM PST
Nautical Twilight 5:43 AM PST 5:56 PM PST
Astronomical Twilight 5:12 AM PST 6:27 PM PST
Moon 2:56 AM PST (11/10) 2:44 PM PST (11/10)
Length of Visible Light 11h 09m
Length of Day
10h 12m
Waning Crescent, 13% of the Moon is Illuminated
Nov 10
Waning Crescent
Nov 13
New
Nov 20
First Quarter
Nov 28
Full
Dec 6
Last Quarter

Hourly Weather History & Observations

Time (PST) Temp. Windchill Dew Point Humidity Pressure Visibility Wind Dir Wind Speed Gust Speed Precip Events Conditions
12:53 AM 44.1 °F 39.0 °F 39.9 °F 85% 29.96 in 10.0 mi SSE 9.2 mph - N/A   Clear
1:53 AM 45.0 °F 40.1 °F 41.0 °F 86% 29.97 in 10.0 mi SSE 9.2 mph - N/A   Clear
2:53 AM 44.1 °F 40.8 °F 41.0 °F 89% 29.97 in 10.0 mi SE 5.8 mph - N/A   Clear
3:53 AM 43.0 °F 38.8 °F 39.9 °F 89% 29.98 in 10.0 mi SSE 6.9 mph - N/A   Clear
4:53 AM 39.0 °F 36.8 °F 37.9 °F 96% 29.99 in 9.0 mi South 3.5 mph - N/A   Clear
6:53 AM 39.9 °F 37.8 °F 39.0 °F 97% 30.04 in 10.0 mi SSE 3.5 mph - N/A   Clear
7:53 AM 43.0 °F 39.5 °F 39.9 °F 89% 30.07 in 10.0 mi SE 5.8 mph - N/A   Clear
8:53 AM 45.0 °F 42.6 °F 39.9 °F 82% 30.09 in 10.0 mi SSW 4.6 mph - N/A   Clear
9:53 AM 48.9 °F - 41.0 °F 74% 30.11 in 10.0 mi SSW 4.6 mph - N/A   Clear
10:53 AM 52.0 °F - 37.9 °F 59% 30.13 in 10.0 mi WSW 5.8 mph - N/A   Clear
11:53 AM 54.0 °F - 37.9 °F 55% 30.13 in 10.0 mi SSW 3.5 mph - N/A   Partly Cloudy
12:53 PM 55.0 °F - 36.0 °F 49% 30.12 in 10.0 mi West 4.6 mph - N/A   Partly Cloudy
1:53 PM 57.0 °F - 33.1 °F 40% 30.12 in 10.0 mi North 4.6 mph - N/A   Partly Cloudy
2:53 PM 57.9 °F - 30.9 °F 36% 30.12 in 10.0 mi North 4.6 mph - N/A   Clear
3:53 PM 57.0 °F - 30.9 °F 37% 30.13 in 10.0 mi Calm Calm - N/A   Clear
4:53 PM 55.0 °F - 28.9 °F 37% 30.13 in 10.0 mi Calm Calm - N/A   Clear
5:53 PM 48.9 °F - 30.9 °F 50% 30.16 in 10.0 mi Calm Calm - N/A   Clear
6:53 PM 45.0 °F - 33.1 °F 63% 30.18 in 10.0 mi Calm Calm - N/A   Clear
7:53 PM 46.4 °F 44.3 °F 33.8 °F 62% 30.19 in 10.0 mi East 4.6 mph - N/A   Partly Cloudy
8:53 PM 41.0 °F 39.0 °F 34.0 °F 76% 30.21 in 10.0 mi East 3.5 mph - N/A   Clear
9:53 PM 39.9 °F - 34.0 °F 79% 30.23 in 10.0 mi Calm Calm - N/A   Clear
10:53 PM 37.0 °F - 34.0 °F 89% 30.24 in 10.0 mi Calm Calm - 0.00 in Rain Light Rain
11:53 PM 37.9 °F - 36.0 °F 93% 30.26 in 10.0 mi Calm Calm - N/A   Clear